Location: Orin
(42.6533°N, 105.1925°W)
Time: 01:44:30
(UTC-07:00)

X-37B - Visible Passes

Search period start: 01 December 2020 00:00
Search period end: 11 December 2020 00:00
Orbit: 384 x 390 km, 45.0° (Epoch: 26 November)

Date Brightness Start Highest point End Pass type
(mag) Time Alt. Az. Time Alt. Az. Time Alt. Az.
01 Dec 0.7 18:07:28 10° W 18:10:35 59° N 18:10:49 57° NNE visible
02 Dec 0.6 17:08:49 10° W 17:11:58 75° NNW 17:14:51 12° ENE visible
02 Dec 2.8 18:45:40 10° WNW 18:47:08 24° WNW 18:47:08 24° WNW visible
03 Dec 0.9 17:47:01 10° W 17:50:08 52° N 17:51:11 34° NE visible
04 Dec 1.5 18:25:10 10° WNW 18:27:33 44° NW 18:27:33 44° NW visible
05 Dec 0.8 17:26:34 10° WNW 17:29:41 54° N 17:31:42 19° ENE visible
05 Dec 3.6 19:03:14 10° WNW 19:03:59 16° WNW 19:03:59 16° WNW visible
06 Dec 0.4 18:04:39 10° WNW 18:07:49 84° NNE 18:08:12 66° E visible
07 Dec 0.6 17:06:04 10° WNW 17:09:13 63° N 17:12:22 10° E visible
07 Dec 2.5 18:42:47 10° W 18:44:50 30° WSW 18:44:50 30° WSW visible
08 Dec 0.9 17:44:08 10° WNW 17:47:17 65° SSW 17:49:20 19° ESE visible
09 Dec 2.8 18:22:31 10° W 18:25:06 23° SSW 18:26:21 18° S visible
10 Dec 2.0 17:23:41 10° W 17:26:41 39° SSW 17:29:38 10° SE visible
